To NAV CANADA Home Page Login to a new session Search on AWWS site Feedback and Comments Disclaimer Vers la page française équivalente Tips FAQ What's new on the site To the Forecasts and Observations / NOTAM section To "File a Flight Plan" website Publications and other links Update of the User's profile FIC Telephone Numbers My Weather Data Folder Route Weather Data Regional Weather Data Local Weather Data To the Forecasts and Observations / NOTAM section
Request Generated 07/25/2016 at 00:16:59 UTC . Weather information available at that time is displayed.

METAR/TAF

KANGIRSUK/QC    

LWIS CYAS 250000Z AUTO 11009KT 11/07 A3004=
LWIS CYAS 242300Z AUTO 11012KT 12/06 A3002=
LWIS CYAS 242200Z AUTO 10010KT 13/07 A3002=

CYAS - No TAF is issued for this station

Your time UTC time
Weather data provided by Environment Canada and NAV CANADA